User: anonymous   Login
Location: Unspecified
(0.0000°N, 0.0000°E)
Time: 15:59:45
(UTC+01:00)
Language:

Ariane H10 - Orbit

View from above orbital plane
View from above orbital plane
View from above satellite
View from above satellite

Ground track
Ground track

The orbit data is extracted from the following two-line orbital elements,

1 19122U 88040B   15060.02531037  .00002034  00000-0  10902-1 0  9990
2 19122 007.1841 151.1334 7153842 191.4999 285.2176 02.32844708177350
Epoch (UTC): 01 March 2015 00:36:26
Eccentricity: 0.7153842
inclination: 7.1841°
perigee height: 465 km
apogee height: 34868 km
right ascension of ascending node: 151.1334°
argument of perigee: 191.4999°
revolutions per day: 2.32844708
mean anomaly at epoch: 285.2176°
orbit number at epoch: 17735

The dashed part of the orbit path shows where the satellite is in the earth's shadow,  

DLR